Location: El Escondido
(32.5691°N, 116.4250°W)
Time: 08:27:07
(UTC+00:00)

ARGOS - Pass Details

Date: 13 April 2024
Orbit: 818 x 834 km, 98.4° (Epoch: 22 May)

Event Time Altitude Azimuth Distance (km) Brightness Sun altitude
Rises 12:45:26 0° 13° (NNE) 3,362 6.8 -7.5°
Reaches altitude 10° 12:47:48 10° 14° (NNE) 2,424 6.0 -7.0°
Maximum altitude 12:53:11 84° 103° (ESE) 829 3.3 -5.9°
Drops below altitude 10° 12:58:31 10° 191° (SSW) 2,403 5.3 -4.8°
Sets 13:00:50 0° 192° (SSW) 3,331 6.0 -4.3°
